Weather History for Hamilton Island, Queensland

Change the Weather History Date:

Saturday, March 16, 2013

  Actual Average Record
Temperature  
Mean Temperature 76 °F -  
Max Temperature 80 °F - - ()
Min Temperature 73 °F - - ()
Cooling Degree Days 12    
Growing Degree Days 26 (Base 50)    
Moisture  
Dew Point 73 °F    
Average Humidity 84    
Maximum Humidity 100    
Minimum Humidity 70    
Precipitation  
Precipitation 0.00 in - - ()
Sea Level Pressure  
Sea Level Pressure 29.88 in    
Wind  
Wind Speed 20 mph ()    
Max Wind Speed 29 mph    
Max Gust Speed -    
T = Trace of Precipitation, MM = Missing Value Source: Averaged Metar Reports

Daily Weather History Graph

Daily Weather History Graph

Search for Another Location

Airport:

Trip Planner

Search our weather history database for the weather conditions in past years. The results will help you decide how hot, cold, wet, or windy it might be!

Date:

Astronomy

Mar. 16, 2013 Rise Set
Actual Time 6:06 AM AEST 6:18 PM AEST
Civil Twilight 5:44 AM AEST 6:40 PM AEST
Nautical Twilight 5:18 AM AEST 7:06 PM AEST
Astronomical Twilight 4:53 AM AEST 7:32 PM AEST
Moon 9:43 AM AEST (3/16) 9:11 PM AEST (3/16)
Length of Visible Light 12h 56m
Length of Day
12h 12m
Waxing Crescent, 18% of the Moon is Illuminated
Mar 16
Waxing Crescent
Mar 20
First Quarter
Mar 27
Full
Apr 3
Last Quarter
Apr 10
New

Hourly Weather History & Observations

Time (AEST) Temp. Heat Index Dew Point Humidity Pressure Visibility Wind Dir Wind Speed Gust Speed Precip Events Conditions
12:00 AM 77 °F - 74 °F 86% 29.88 in - SSE 20.7 mph - -  
12:00 AM 77.0 °F - 73.4 °F 89% 29.89 in - SSE 20.7 mph - N/A   Unknown
12:30 AM 77.0 °F - 73.4 °F 89% 29.89 in - SSE 20.7 mph - N/A   Unknown
1:00 AM 77.0 °F - 73.4 °F 89% 29.89 in - SSE 19.6 mph - N/A   Unknown
1:30 AM 77.0 °F - 73.4 °F 89% 29.86 in - South 17.3 mph - N/A   Unknown
2:00 AM 77.0 °F - 73.4 °F 89% 29.86 in - SSE 16.1 mph - N/A   Unknown
2:30 AM 77.0 °F - 73.4 °F 89% 29.86 in - South 16.1 mph - N/A   Unknown
3:00 AM 76 °F - 74 °F 93% 29.86 in - South 17.3 mph - -  
3:00 AM 75.2 °F - 75.2 °F 100% 29.86 in - South 17.3 mph - N/A   Unknown
3:30 AM 75.2 °F - 75.2 °F 100% 29.86 in - SSE 20.7 mph - N/A   Unknown
4:00 AM 77.0 °F - 75.2 °F 94% 29.86 in - SSE 20.7 mph - N/A   Unknown
4:30 AM 75.2 °F - 75.2 °F 100% 29.86 in - SSE 20.7 mph - N/A   Unknown
5:00 AM 75.2 °F - 75.2 °F 100% 29.86 in - SSE 20.7 mph - N/A   Unknown
5:30 AM 75.2 °F - 75.2 °F 100% 29.86 in - SSE 20.7 mph - N/A   Unknown
6:00 AM 76 °F - 74 °F 94% 29.87 in - SSE 21.9 mph - -  
6:00 AM 75.2 °F - 75.2 °F 100% 29.86 in - SSE 21.9 mph - N/A   Unknown
6:30 AM 75.2 °F - 73.4 °F 94% 29.86 in - SSE 21.9 mph - N/A   Unknown
7:00 AM 75.2 °F - 73.4 °F 94% 29.89 in - SSE 23.0 mph - N/A   Unknown
7:30 AM 77.0 °F - 73.4 °F 89% 29.89 in - SSE 23.0 mph - N/A   Unknown
8:00 AM 77.0 °F - 73.4 °F 89% 29.89 in - SSE 21.9 mph - N/A   Unknown
8:30 AM 77.0 °F - 73.4 °F 89% 29.92 in - SSE 25.3 mph - N/A   Unknown
9:00 AM 78 °F - 74 °F 83% 29.92 in - SE 25.3 mph - -  
9:00 AM 78.8 °F - 73.4 °F 83% 29.92 in - SE 25.3 mph - N/A   Unknown
9:30 AM 78.8 °F - 73.4 °F 83% 29.92 in - SSE 25.3 mph - N/A   Unknown
10:00 AM 78.8 °F - 73.4 °F 83% 29.92 in - SSE 24.2 mph - N/A   Unknown
10:30 AM 78.8 °F - 73.4 °F 83% 29.92 in - SSE 23.0 mph - N/A   Unknown
11:00 AM 80.6 °F 85.4 °F 73.4 °F 79% 29.92 in - SSE 24.2 mph - N/A   Unknown
11:30 AM 78.8 °F - 73.4 °F 83% 29.92 in - SSE 23.0 mph - N/A   Unknown
12:00 PM 80 °F - 72 °F 70% 29.91 in - SSE 24.2 mph - -  
12:00 PM 80.6 °F 84.6 °F 71.6 °F 74% 29.92 in - SSE 24.2 mph - N/A   Unknown
12:30 PM 80.6 °F 85.4 °F 73.4 °F 79% 29.89 in - SSE 26.5 mph - N/A   Unknown
1:00 PM 80.6 °F 85.4 °F 73.4 °F 79% 29.89 in - SSE 26.5 mph - N/A   Unknown
1:30 PM 78.8 °F - 71.6 °F 78% 29.86 in - SSE 28.8 mph - N/A   Unknown
2:00 PM 78.8 °F - 71.6 °F 78% 29.86 in - SE 28.8 mph - N/A   Unknown
2:30 PM 78.8 °F - 73.4 °F 83% 29.86 in - SSE 28.8 mph - N/A   Unknown
3:00 PM 79 °F - 72 °F 73% 29.85 in - SSE 27.6 mph - -  
3:00 PM 78.8 °F - 71.6 °F 78% 29.86 in - SSE 27.6 mph - N/A   Unknown
3:30 PM 78.8 °F - 71.6 °F 78% 29.83 in - SE 27.6 mph - N/A   Unknown
4:00 PM 78.8 °F - 71.6 °F 78% 29.83 in - SSE 26.5 mph - N/A   Unknown
4:30 PM 78.8 °F - 71.6 °F 78% 29.83 in - SSE 23.0 mph - N/A   Unknown
5:00 PM 78.8 °F - 71.6 °F 78% 29.83 in - SE 25.3 mph - N/A   Unknown
5:30 PM 77.0 °F - 71.6 °F 83% 29.83 in - SE 25.3 mph - N/A   Unknown
6:00 PM 78 °F - 71 °F 73% 29.85 in - SE 26.5 mph - -  
6:00 PM 78.8 °F - 71.6 °F 78% 29.86 in - SE 26.5 mph - N/A   Unknown
6:30 PM 77.0 °F - 71.6 °F 83% 29.86 in - SE 24.2 mph - N/A   Unknown
7:00 PM 77.0 °F - 71.6 °F 83% 29.86 in - SE 24.2 mph - N/A   Unknown
7:30 PM 77.0 °F - 69.8 °F 78% 29.89 in - SE 23.0 mph - N/A   Unknown
8:00 PM 77.0 °F - 69.8 °F 78% 29.89 in - SE 23.0 mph - N/A   Unknown
8:30 PM 77.0 °F - 69.8 °F 78% 29.89 in - SE 21.9 mph - N/A   Unknown
9:00 PM 77.0 °F - 69.8 °F 78% 29.89 in - SE 24.2 mph - N/A   Unknown
9:30 PM 77.0 °F - 69.8 °F 78% 29.89 in - SE 24.2 mph - N/A   Unknown
10:00 PM 77.0 °F - 69.8 °F 78% 29.89 in - SE 21.9 mph - N/A   Unknown
10:30 PM 77.0 °F - 68.0 °F 74% 29.89 in - SE 21.9 mph - N/A   Unknown
11:00 PM 77.0 °F - 69.8 °F 78% 29.89 in - SE 23.0 mph - N/A   Unknown
11:30 PM 77.0 °F - 69.8 °F 78% 29.89 in - SE 23.0 mph - N/A   Unknown